[[{"header":{"parameterUnit":"m.s-1","parameterCategory":1,"la1":30.2991,"la2":30.254,"lo1":-89.0895,"lo2":-89.0444,"dy":0.0017,"dx":0.0017,"nx":28,"ny":28,"refTime":"2024-08-03T21:00:00:Z","depth":0,"parameterNumber":2,"parameterNumberName":"U-component_of_WINDS"},"data":[0,0,0,0,0,0,0,0,0,0,0,0,0,0,0,0,0,0,0,0,0,0,0,0,0,0,0,0,0,0,0,0,0,0,0,0,0,0,0,0,0,0,0,0,0,0,0,0,0,0,0,0,0,0,0,0,0,0,-0.0013,-0.0012,0,0.0063,0.0064,0.0065,0.0098,0.0098,0.0098,0.0098,0.0176,0.0178,0.018,0,0,0,0,0,0,0,0,0,0,0,0,0,-0.0132,-0.013,-0.0013,-0.0012,-0.0011,0.0063,0.0064,0.0065,0.0098,0.0098,0.0098,0.0098,0.0175,0.0177,0.018,0,0,0,0,0,0,0,0,0,0,0,0,0,-0.007,-0.0129,-0.0014,0.0014,0.0017,0.0063,0.0064,0.0065,0.0098,0.0098,0.0098,0.0098,0.0174,0.0177,0.018,0.0204,0,0,0.019,0.0192,0,0,0,0,0,0,0,0,-0.0074,-0.0066,0.0009,0.0012,0.0016,0.0071,0.0051,0.0112,0.0098,0.0067,0.0098,0.0098,0.0141,0.0147,0.0161,0.0207,0.0211,0.0191,0.0193,0.0194,0.0195,0,0,0,0,0,0,0,-0.0078,-0.0069,0.0017,0.001,0.0014,0.0022,0.0031,0.0062,0.0104,0.007,0.0073,0.0081,0.0143,0.0158,0.0164,0.0212,0.019,0.0193,0.0195,0.0197,0.028,0.028,0,0,0,0,0,0,-0.0087,-0.0073,0.0014,0.0019,-0.003,0.0024,0.0034,0.0053,0.0104,0.0111,0.0081,0.0083,0.0153,0.016,0.0166,0.0197,0.0194,0.0197,0.0199,0.028,0.028,0.028,0,0,0,0,0,0,-0.009,-0.0079,0.0011,-0.0026,-0.0014,0.0027,0.0048,0.0055,0.0071,0.0112,0.012,0.009,0.0153,0.0162,0.0194,0.02,0.0198,0.0201,0.0279,0.028,0.028,0.0258,0,0,0,0,0,0,-0.0093,-0.0081,-0.0071,-0.0026,-0.0012,0.0038,0.0049,0.0057,0.0076,0.0079,0.0122,0.0129,0.0153,0.0189,0.0197,0.0204,0.0204,0.0279,0.0279,0.028,0.0258,0.0257,0.0257,0,0,0,0,0,-0.0097,-0.008,-0.0071,-0.006,0.0001,0.0038,0.0046,0.0074,0.0077,0.0086,0.0113,0.0128,0.0198,0.0192,0.0202,0.021,0.0279,0.0279,0.028,0.0259,0.0258,0.0257,0,0,0,0,0,0,-0.0125,-0.0074,-0.0062,-0.003,-0.0001,0.0044,0.0057,0.0072,0.0102,0.0102,0.0135,0.0145,0.0174,0.0195,0.0188,0.0235,0.0239,0.0242,0.022,0.0219,0.0219,0.0213,0.0207,0,0,0,0,0,-0.0128,-0.0101,-0.0058,-0.0033,-0.0019,0.0016,0.0034,0.0052,0.0084,0.0097,0.0126,0.0156,0.0185,0.0203,0.0232,0.0261,0.0271,0.0271,0.0271,0.027,0.0272,0.0288,0.0289,0.0282,0.0282,0.0282,0,0,-0.0132,-0.0101,-0.0086,-0.0038,-0.0013,0.0013,0.0027,0.0054,0.0074,0.0101,0.0133,0.0155,0.0191,0.0222,0.0237,0.024,0.0275,0.027,0.0269,0.0272,0.0289,0.0289,0.029,0.0283,0.0282,0.0282,0,0,-0.0127,-0.01,-0.0077,-0.0053,-0.0015,0.0009,0.0014,0.0056,0.0072,0.0105,0.0125,0.0149,0.0198,0.0222,0.0241,0.0254,0.0269,0.0263,0.0259,0.0274,0.0275,0.0275,0.028,0.0281,0.0264,0.0264,0.0264,0,-0.0137,-0.0096,-0.0067,-0.0041,-0.0021,0.0004,0.0028,0.005,0.0095,0.0108,0.0111,0.0173,0.0199,0.0235,0.0238,0.0253,0.0259,0.0258,0.0272,0.0273,0.0274,0.0279,0.0281,0.0263,0.0263,0.0263,0.0264,0,-0.0111,-0.0083,-0.007,-0.0027,-0.0005,0.0019,0.0051,0.007,0.0086,0.0109,0.0141,0.0173,0.0208,0.0218,0.0235,0.0257,0.0258,0.0266,0.0272,0.0274,0.0278,0.028,0.0262,0.0262,0.0262,0.0263,0,0,-0.012,-0.0062,-0.0058,-0.0038,0.0005,0.0027,0.0052,0.0086,0.0101,0.0131,0.0153,0.0193,0.0201,0.0222,0.0241,0.0255,0.0263,0.0262,0.0263,0.0261,0.0288,0.0282,0.0284,0.0272,0.0273,0.0273,0.0285,0,-0.0109,-0.0063,-0.0036,-0.0001,0.0025,0.0049,0.0071,0.0099,0.0121,0.0145,0.0169,0.0197,0.0205,0.0218,0.0233,0.0258,0.0269,0.0258,0.0292,0.0293,0.0283,0.0286,0.028,0.029,0.0288,0.0288,0.0288,0,-0.009,-0.006,-0.0022,0.0017,0.0029,0.0048,0.0082,0.0105,0.0137,0.0152,0.0175,0.0194,0.0221,0.0223,0.0261,0.0253,0.0268,0.0283,0.0284,0.0288,0.0291,0.0291,0.0294,0.0295,0.0292,0.0291,0.0291,0,-0.0101,-0.0052,-0.0022,-0.0007,0.004,0.0053,0.0073,0.0105,0.0124,0.0153,0.0166,0.0197,0.0214,0.0238,0.0265,0.0264,0.0299,0.0304,0.0312,0.0311,0.0318,0.0318,0.0324,0.0328,0.0328,0.0328,0.0328,0,-0.0091,-0.0068,-0.0027,-0.0009,0.0017,0.0046,0.007,0.0092,0.012,0.0142,0.0165,0.0185,0.0219,0.0243,0.0264,0.0291,0.0299,0.0311,0.0317,0.031,0.0308,0.032,0.032,0.0328,0.0328,0.0328,0.0328,0,-0.0098,-0.0069,-0.0036,0.0005,0.0016,0.0033,0.0068,0.0086,0.0108,0.0136,0.0144,0.0179,0.0209,0.0237,0.0277,0.0291,0.0318,0.0325,0.0307,0.031,0.0316,0.0315,0.0331,0.0335,0.0336,0.0335,0.0335,0,-0.0094,-0.0076,-0.0033,-0.0016,0.0003,0.003,0.0049,0.0078,0.0097,0.0135,0.0148,0.0179,0.0206,0.0251,0.028,0.031,0.0318,0.0322,0.0323,0.0315,0.0319,0.0317,0.0319,0.0321,0.0321,0.0321,0.0321,0,-0.0089,-0.0076,-0.0049,-0.0017,0.0006,0.0032,0.0059,0.0071,0.0105,0.0126,0.0156,0.0177,0.0217,0.0247,0.0281,0.0301,0.0316,0.032,0.0323,0.0316,0.0305,0.0311,0.0305,0.032,0.032,0.032,0.032,0.032,-0.009,-0.0073,-0.0041,-0.0011,0.0012,0.0037,0.0055,0.008,0.0106,0.0141,0.0156,0.0187,0.0218,0.0265,0.0284,0.0308,0.0312,0.0317,0.0318,0.0319,0.0318,0.0301,0.0315,0.0315,0.0315,0.0315,0.0315,0,-0.0084,-0.0062,-0.0036,0.0002,0.0024,0.0037,0.0067,0.0085,0.0112,0.014,0.0165,0.02,0.0229,0.026,0.0291,0.0305,0.0312,0.0312,0.0311,0.0316,0.0312,0.0307,0.0305,0.0305,0.0305,0.0305,0.0305,0.0305,-0.0078,-0.005,-0.0033,0.0008,0.003,0.006,0.0076,0.0099,0.0121,0.0159,0.0183,0.0203,0.0232,0.0265,0.0292,0.0301,0.0311,0.0308,0.0319,0.0315,0.0316,0.0316,0.0311,0.031,0.031,0.032,0.032,0.032]},{"header":{"parameterUnit":"m.s-1","parameterCategory":1,"la1":30.2991,"la2":30.254,"lo1":-89.0895,"lo2":-89.0444,"dy":0.0017,"dx":0.0017,"nx":28,"ny":28,"refTime":"2024-08-03T21:00:00:Z","depth":0,"parameterNumber":3,"parameterNumberName":"V-component_of_WINDS"},"data":[0,0,0,0,0,0,0,0,0,0,0,0,0,0,0,0,0,0,0,0,0,0,0,0,0,0,0,0,0,0,0,0,0,0,0,0,0,0,0,0,0,0,0,0,0,0,0,0,0,0,0,0,0,0,0,0,0,0,1.8563,1.8562,0,1.8489,1.8488,1.8487,1.8443,1.8443,1.8443,1.8443,1.8364,1.8362,1.836,0,0,0,0,0,0,0,0,0,0,0,0,0,1.8661,1.866,1.8563,1.8562,1.8561,1.8489,1.8488,1.8487,1.8443,1.8443,1.8443,1.8442,1.8365,1.8362,1.836,0,0,0,0,0,0,0,0,0,0,0,0,0,1.8606,1.8659,1.8563,1.853,1.8527,1.8489,1.8488,1.8487,1.8443,1.8443,1.8443,1.8442,1.8365,1.8363,1.836,1.8348,0,0,1.8351,1.835,0,0,0,0,0,0,0,0,1.8609,1.8602,1.8536,1.8532,1.8528,1.8475,1.8494,1.844,1.8443,1.8475,1.8443,1.8442,1.8401,1.8395,1.8382,1.8345,1.8341,1.8351,1.8349,1.8348,1.8347,0,0,0,0,0,0,0,1.8613,1.8605,1.8533,1.8535,1.853,1.8518,1.851,1.8484,1.844,1.8472,1.8469,1.8461,1.8399,1.8385,1.838,1.834,1.8351,1.8348,1.8347,1.8346,1.8288,1.8288,0,0,0,0,0,0,1.8623,1.8609,1.8536,1.8531,1.8569,1.8517,1.8507,1.8492,1.8441,1.8432,1.8461,1.8459,1.839,1.8383,1.8377,1.8359,1.8348,1.8345,1.8344,1.8288,1.8288,1.8288,0,0,0,0,0,0,1.8625,1.8616,1.8539,1.8569,1.8558,1.8515,1.8499,1.8491,1.8477,1.8432,1.8424,1.8455,1.8389,1.8381,1.8356,1.8356,1.8344,1.8341,1.8288,1.8288,1.8288,1.8324,0,0,0,0,0,0,1.8628,1.8618,1.8614,1.8569,1.8557,1.852,1.8499,1.849,1.8473,1.8469,1.8424,1.8417,1.8389,1.836,1.8353,1.8352,1.8339,1.8287,1.8288,1.8288,1.8323,1.8326,1.8328,0,0,0,0,0,1.8632,1.8626,1.8614,1.8605,1.8551,1.852,1.8513,1.8482,1.8473,1.8468,1.8439,1.8418,1.8357,1.8358,1.8349,1.8347,1.8287,1.8288,1.8288,1.8322,1.8325,1.8328,0,0,0,0,0,0,1.8671,1.862,1.8606,1.8586,1.8558,1.8513,1.8506,1.8486,1.8459,1.8457,1.8418,1.8408,1.8387,1.8364,1.8366,1.8333,1.832,1.8318,1.8348,1.8351,1.8354,1.836,1.8337,0,0,0,0,0,1.8678,1.8658,1.8614,1.8601,1.8588,1.8549,1.8535,1.8513,1.8482,1.8469,1.8438,1.8408,1.8382,1.8365,1.8339,1.8319,1.8308,1.8314,1.8316,1.8319,1.8318,1.8305,1.8307,1.829,1.829,1.829,0,0,1.8691,1.8661,1.865,1.8608,1.8584,1.8563,1.854,1.8519,1.8502,1.8465,1.844,1.8416,1.8379,1.8357,1.8346,1.8338,1.832,1.8319,1.8322,1.8319,1.8306,1.8307,1.8309,1.829,1.829,1.829,0,0,1.8704,1.868,1.8666,1.8642,1.8606,1.858,1.8577,1.8534,1.8517,1.8491,1.8463,1.8442,1.8398,1.8373,1.8355,1.8357,1.8337,1.835,1.8364,1.8351,1.8353,1.8354,1.8354,1.8354,1.8349,1.8349,1.8349,0,1.8725,1.8694,1.8661,1.8642,1.8623,1.859,1.8575,1.8553,1.8509,1.8497,1.8489,1.8432,1.8405,1.8376,1.8377,1.8363,1.8357,1.8355,1.8355,1.8356,1.8356,1.8356,1.8356,1.8351,1.8351,1.8351,1.835,0,1.8721,1.8699,1.8692,1.8652,1.8632,1.8615,1.8579,1.8563,1.8543,1.8517,1.849,1.8457,1.8422,1.8414,1.8393,1.8381,1.8377,1.8363,1.8349,1.836,1.8359,1.8359,1.8353,1.8353,1.8352,1.8352,0,0,1.8757,1.8699,1.8697,1.8678,1.8634,1.8616,1.8597,1.8564,1.8551,1.8522,1.8504,1.8467,1.8453,1.8432,1.8408,1.8398,1.8401,1.8384,1.8383,1.8388,1.8384,1.8395,1.8395,1.8387,1.8387,1.8387,1.8387,0,1.8764,1.8729,1.8699,1.8674,1.8653,1.862,1.8603,1.8574,1.855,1.8527,1.8499,1.8474,1.8458,1.8445,1.8433,1.8403,1.8399,1.8403,1.8368,1.8368,1.8379,1.8395,1.8407,1.8409,1.8386,1.8386,1.8386,0,1.8767,1.874,1.8714,1.8672,1.8662,1.8647,1.8614,1.8593,1.8559,1.8542,1.8518,1.8493,1.847,1.8458,1.8425,1.8428,1.8412,1.8395,1.8394,1.8389,1.8378,1.839,1.8408,1.8409,1.8385,1.8385,1.8385,0,1.8796,1.8753,1.8731,1.8716,1.8666,1.8657,1.8635,1.8601,1.8583,1.8553,1.8541,1.8509,1.8492,1.8467,1.8433,1.8428,1.8403,1.8389,1.8387,1.8388,1.8383,1.8384,1.8398,1.8373,1.8373,1.8373,1.8373,0,1.8807,1.8791,1.8743,1.873,1.8711,1.8676,1.8658,1.8634,1.8604,1.8584,1.8553,1.8535,1.8492,1.8469,1.8442,1.8418,1.841,1.8395,1.8388,1.8397,1.8399,1.8386,1.8385,1.8373,1.8373,1.8373,1.8373,0,1.8836,1.8803,1.8777,1.8732,1.8721,1.8709,1.867,1.8655,1.8629,1.8604,1.8597,1.8555,1.8525,1.849,1.8449,1.8431,1.8408,1.8398,1.842,1.8416,1.8416,1.8416,1.8423,1.8421,1.8398,1.8399,1.8399,0,1.8845,1.8832,1.8786,1.8771,1.8751,1.8728,1.8709,1.8673,1.8655,1.8614,1.8604,1.8572,1.8545,1.8499,1.8464,1.8432,1.8421,1.8425,1.8416,1.8425,1.842,1.8421,1.8419,1.8428,1.8428,1.8428,1.8429,0,1.8863,1.8847,1.8823,1.8792,1.877,1.8744,1.8716,1.8705,1.8663,1.8644,1.8614,1.8593,1.8551,1.8519,1.8483,1.8459,1.8437,1.8432,1.843,1.8439,1.8452,1.8444,1.8427,1.8432,1.8432,1.8431,1.8431,1.8431,1.8882,1.8869,1.8835,1.8808,1.8783,1.8757,1.8741,1.8713,1.8687,1.8651,1.8631,1.8601,1.8565,1.8514,1.8491,1.8467,1.8459,1.8456,1.8455,1.8454,1.8457,1.8457,1.846,1.846,1.8459,1.8459,1.8459,0,1.8899,1.8875,1.885,1.8812,1.8791,1.8772,1.874,1.8723,1.8697,1.8666,1.864,1.8605,1.8574,1.8537,1.8503,1.849,1.8479,1.8482,1.8483,1.8477,1.8466,1.8471,1.8492,1.8492,1.8492,1.8492,1.8492,1.8492,1.8905,1.8882,1.8862,1.8826,1.8801,1.8773,1.8756,1.8732,1.8707,1.8669,1.8644,1.862,1.8586,1.8549,1.852,1.8509,1.8498,1.8505,1.8491,1.8481,1.8478,1.8476,1.848,1.8503,1.8503,1.8504,1.8504,1.8504]}]]